STARLINK-32186 (60412 NORAD) Tracking and Keplerian Element Data

This shows tracking and keplerian element data for the satellite.

Feedback or suggestion? Click here.




ElementValue
Catalog60412
NameSTARLINK-32186
Epoch Orbit1100
Epoch Day286.87382766
Epoch Year2024
RAAN104.7422
Inclination53.1616
Eccentricity0.0001078
Argument of Perigee94.9798
Mean Anonmoly265.1326
Mean Motion15.30208477
Decay Rate-1.706E-05
L11 60412U 24141Q 24286.87382766 -.00001706 00000+0 -45469-4 0 9991
L22 60412 53.1616 104.7422 0001078 94.9798 265.1326 15.30208477 11003



Live tracking and technical data element details for STARLINK-32186 (NORAD 60412). STARLINK-32186 can be tracked NOW for your location showing map with azimuth and elevation plus other details from your city location.







IsCatalogInMostPopularTable: catalog: 60412, numindb: 9
Update: records affected: 1



GetName: 60412 STARLINK-32186

Hit Count: updated at: Tue, 03 Dec 2024 01:22:18 GMT